This is the latest recevied weather packets stored in our database for station/object N4CRH-13. If no packets are shown the sender has not sent any weather packets the latest 10 day(s).
| Time | Temp. | Humidity | Pressure | Rain* | Wind** | Luminosity | Snow |
|---|---|---|---|---|---|---|---|
| 1777831803 | 17.78° C | 24% | 1295.4 hPa | 0 mm | - | 666 W/m² | - |
| 1777831500 | 17.78° C | 24% | 1295.6 hPa | 0 mm | - | 725 W/m² | - |
| 1777831197 | 17.78° C | 23% | 1295.7 hPa | 0 mm | - | 600 W/m² | - |
| 1777830895 | 17.22° C | 27% | 1295.9 hPa | 0 mm | - | 734 W/m² | - |
| 1777830591 | 16.11° C | 24% | 1295.9 hPa | 0 mm | - | 696 W/m² | - |
| 1777830289 | 16.11° C | 25% | 1295.9 hPa | 0 mm | - | 480 W/m² | - |
| 1777829984 | 16.11° C | 25% | 1296.3 hPa | 0 mm | - | 383 W/m² | - |
| 1777829680 | 16.11° C | 24% | 1296.2 hPa | 0 mm | - | 392 W/m² | - |
| 1777829377 | 16.11° C | 24% | 1296.3 hPa | 0 mm | - | 418 W/m² | - |
| 1777829074 | 15.56° C | 27% | 1296.3 hPa | 0 mm | - | 401 W/m² | - |
| 1777828771 | 16.11° C | 26% | 1296.4 hPa | 0 mm | - | 407 W/m² | - |
| 1777828467 | 16.11° C | 28% | 1296.5 hPa | 0 mm | - | 376 W/m² | - |
| 1777828165 | 16.11° C | 29% | 1296.7 hPa | 0 mm | - | 476 W/m² | - |
| 1777827861 | 15.56° C | 25% | 1296.9 hPa | 0 mm | - | 372 W/m² | - |
| 1777827558 | 15.56° C | 26% | 1296.5 hPa | 0 mm | - | 422 W/m² | - |
| 1777827256 | 15° C | 24% | 1296.9 hPa | 0 mm | - | 365 W/m² | - |
| 1777826951 | 15° C | 24% | 1296.9 hPa | 0 mm | - | 346 W/m² | - |
| 1777826649 | 15° C | 28% | 1296.9 hPa | 0 mm | - | 288 W/m² | - |
| 1777826345 | 14.44° C | 27% | 1297.1 hPa | 0 mm | - | 261 W/m² | - |
| 1777826043 | 14.44° C | 27% | 1297 hPa | 0 mm | - | 254 W/m² | - |
| 1777825740 | 14.44° C | 25% | 1297.1 hPa | 0 mm | - | 236 W/m² | - |
| 1777825438 | 14.44° C | 27% | 1297 hPa | 0 mm | - | 219 W/m² | - |
| 1777825134 | 14.44° C | 27% | 1297.1 hPa | 0 mm | - | 211 W/m² | - |
| 1777824831 | 14.44° C | 32% | 1297 hPa | 0 mm | - | 210 W/m² | - |
| 1777824528 | 14.44° C | 29% | 1297.1 hPa | 0 mm | - | 214 W/m² | - |
* Rain latest hour (hover to see other rain measurements)
** Current wind speed in m/s (hover to see current wind gust speed)